Weather History for TJNR - January, 2014

Change the Weather History Date:

Saturday, January 25, 2014

  Actual Average Record
Temperature  
Mean Temperature 76 °F -  
Max Temperature 82 °F 80 °F 84 °F (1998)
Min Temperature 71 °F 69 °F 46 °F (1998)
Cooling Degree Days 12    
Growing Degree Days 26 (Base 50)    
Moisture  
Dew Point 71 °F    
Average Humidity 82    
Maximum Humidity 94    
Minimum Humidity 70    
Precipitation  
Precipitation 0.01 in - - ()
Sea Level Pressure  
Sea Level Pressure 30.05 in    
Wind  
Wind Speed 7 mph (East)    
Max Wind Speed 16 mph    
Max Gust Speed 22 mph    
Visibility 10 miles    
Events      
Averages and records for this station are not official NWS values.
T = Trace of Precipitation, MM = Missing Value Source: NWS Daily Summary

Daily Weather History Graph

Daily Weather History Graph

Search for Another Location

Airport or City:

Trip Planner

Search our weather history database for the weather conditions in past years. The results will help you decide how hot, cold, wet, or windy it might be!

Date:

Astronomy

Jan. 25, 2014 Rise Set
Actual Time 6:57 AM AST 6:12 PM AST
Civil Twilight 6:34 AM AST 6:35 PM AST
Nautical Twilight 6:07 AM AST 7:02 PM AST
Astronomical Twilight 5:41 AM AST 7:28 PM AST
Moon 1:29 AM AST (1/25) 1:08 PM AST (1/25)
Length of Visible Light 12h 01m
Length of Day
11h 15m
Waning Crescent, 34% of the Moon is Illuminated
Jan 25
Waning Crescent
Jan 30
New
Feb 6
First Quarter
Feb 14
Full
Feb 22
Last Quarter

Hourly Weather History & Observations

Time (AST) Temp. Heat Index Dew Point Humidity Pressure Visibility Wind Dir Wind Speed Gust Speed Precip Events Conditions
12:53 AM 77.0 °F - 70.0 °F 79% 30.06 in 10.0 mi East 6.9 mph - N/A   Clear
1:53 AM 75.9 °F - 69.1 °F 79% 30.04 in 10.0 mi East 4.6 mph - N/A   Scattered Clouds
2:53 AM 75.9 °F - 68.0 °F 76% 30.02 in 10.0 mi East 4.6 mph - N/A   Clear
3:53 AM 75.0 °F - 66.9 °F 76% 30.01 in 10.0 mi East 4.6 mph - N/A   Clear
4:53 AM 75.0 °F - 69.1 °F 82% 30.03 in 10.0 mi ENE 3.5 mph - N/A   Mostly Cloudy
5:05 AM 75.2 °F - 69.8 °F 83% 30.03 in 10.0 mi ENE 4.6 mph - N/A   Mostly Cloudy
5:53 AM 77.0 °F - 69.1 °F 76% 30.03 in 10.0 mi ENE 4.6 mph - N/A   Overcast
6:53 AM 77.0 °F - 70.0 °F 79% 30.04 in 10.0 mi East 9.2 mph - N/A   Partly Cloudy
7:53 AM 78.1 °F - 70.0 °F 76% 30.05 in 10.0 mi East 8.1 mph - N/A   Clear
8:53 AM 80.1 °F 83.2 °F 70.0 °F 71% 30.07 in 10.0 mi ESE 10.4 mph - N/A   Clear
9:46 AM 82.4 °F 87.2 °F 71.6 °F 70% 30.10 in 10.0 mi East 10.4 mph - N/A   Mostly Cloudy
9:53 AM 82.0 °F 86.7 °F 72.0 °F 71% 30.10 in 10.0 mi East 10.4 mph - N/A   Mostly Cloudy
10:53 AM 82.0 °F 86.7 °F 72.0 °F 71% 30.10 in 10.0 mi East 8.1 mph - N/A   Mostly Cloudy
11:18 AM 82.4 °F 88.2 °F 73.4 °F 74% 30.09 in 10.0 mi East 12.7 mph 17.3 mph N/A   Mostly Cloudy
11:53 AM 80.1 °F 84.2 °F 73.0 °F 79% 30.08 in 10.0 mi SE 16.1 mph 21.9 mph N/A   Mostly Cloudy
12:13 PM 82.4 °F 88.2 °F 73.4 °F 74% 30.07 in 10.0 mi SE 13.8 mph 20.7 mph 0.01 in   Overcast
12:53 PM 81.0 °F 84.9 °F 71.1 °F 72% 30.05 in 10.0 mi ESE 10.4 mph - 0.01 in   Overcast
1:53 PM 82.0 °F 87.4 °F 73.0 °F 74% 30.02 in 10.0 mi East 9.2 mph - N/A   Mostly Cloudy
2:53 PM 75.0 °F - 72.0 °F 90% 30.01 in 10.0 mi ESE 16.1 mph 20.7 mph N/A   Scattered Clouds
3:53 PM 75.0 °F - 72.0 °F 90% 30.00 in 10.0 mi Calm Calm - N/A   Overcast
4:53 PM 75.0 °F - 71.1 °F 87% 30.01 in 10.0 mi ESE 11.5 mph - N/A   Clear
5:53 PM 73.9 °F - 71.1 °F 91% 30.02 in 10.0 mi ESE 5.8 mph - N/A   Clear
6:53 PM 73.9 °F - 71.1 °F 91% 30.04 in 10.0 mi ESE 6.9 mph - N/A   Partly Cloudy
7:25 PM 73.4 °F - 71.6 °F 94% 30.04 in 10.0 mi ESE 6.9 mph - N/A   Mostly Cloudy
7:36 PM 73.4 °F - 71.6 °F 94% 30.04 in 10.0 mi ESE 11.5 mph - N/A   Scattered Clouds
7:53 PM 73.9 °F - 71.1 °F 91% 30.05 in 10.0 mi ESE 6.9 mph - N/A   Scattered Clouds
8:53 PM 73.0 °F - 70.0 °F 90% 30.06 in 10.0 mi ESE 8.1 mph - N/A   Scattered Clouds
9:53 PM 71.1 °F - 68.0 °F 90% 30.08 in 10.0 mi ESE 5.8 mph - N/A   Clear
10:53 PM 72.0 °F - 68.0 °F 87% 30.08 in 10.0 mi East 8.1 mph - N/A   Partly Cloudy
11:53 PM 72.0 °F - 69.1 °F 91% 30.07 in 10.0 mi ESE 5.8 mph - N/A   Partly Cloudy